Wind_Speed
14 12 15 17 17 14 13 8 10 11 12 12 11 12 15 16 16 16 17 16 16 16 15 14 11 13 17 15 14 12 9 13 19 23 23 23 25 26 32 21 18 21 18
14 13 15 17 17 9 10 10 12 10 11 11 11 15 13 11 15 15 17 17 18 18 17 13 13 10 11 13 12 16 18 18 29 25 21 20 24 27 24 20 17 20 19
13 12 13 16 9 9 12 11 10 10 11 10 10 12 15 12 11 13 16 14 16 18 13 9 15 16 15 15 14 12 20 25 29 23 21 21 21 21 22 19 21 22 21
13 12 12 10 13 10 13 14 12 11 8 8 7 10 12 10 11 14 13 12 15 16 13 12 13 10 10 13 13 15 19 23 26 22 19 23 16 23 22 25 23 23 21
10 10 10 11 16 14 11 11 14 13 9 10 7 6 10 11 10 11 13 15 17 13 10 9 8 9 11 12 9 13 16 20 18 17 16 21 20 21 21 27 25 22 17
9 8 10 8 8 10 10 8 13 12 11 7 5 7 8 10 12 12 12 15 18 14 11 8 7 8 10 9 10 9 10 15 15 15 20 19 20 25 25 25 22 20 12
8 9 10 12 15 14 14 12 9 14 13 12 7 7 11 11 11 15 15 17 19 17 14 11 11 9 9 8 9 11 9 16 13 23 21 17 23 28 24 22 21 15 9
8 9 13 14 14 16 17 15 14 11 13 20 20 17 11 13 18 17 15 15 15 17 15 15 15 10 6 9 10 12 10 15 17 21 20 21 24 23 23 14 10 8 8
8 9 11 11 12 13 17 17 16 17 21 23 19 15 18 13 19 19 19 17 14 14 14 15 11 5 7 9 14 19 21 21 21 19 20 21 17 14 11 9 8 7 8
8 11 11 11 11 12 14 16 16 18 21 25 25 20 21 24 20 18 17 14 12 11 11 14 10 12 17 24 25 25 24 21 18 17 16 13 10 8 6 6 8 10 11
7 8 9 10 10 12 13 13 15 17 19 22 25 27 28 28 26 24 20 19 17 17 18 23 19 18 20 21 18 16 22 20 16 12 8 7 6 7 9 10 10 10 13
6 6 6 6 7 8 9 10 13 15 16 18 20 23 24 26 26 25 23 22 23 23 22 23 22 20 18 18 20 20 13 10 8 9 9 9 9 8 8 9 11 14 17
5 5 5 5 6 9 12 12 13 16 17 18 19 20 21 21 22 22 23 22 20 19 19 19 18 17 16 14 14 11 10 9 8 6 5 4 6 7 9 12 15 18 21
5 5 5 5 7 9 12 14 15 16 18 20 21 21 22 21 20 19 18 18 17 16 14 13 12 12 11 11 10 9 7 6 4 3 3 6 9 12 15 18 21 23 25
7 5 5 7 8 10 12 12 13 15 15 15 16 16 16 16 15 15 15 14 12 11 9 8 6 5 4 3 2 2 1 1 2 4 7 10 13 17 20 22 24 26 28
8 8 7 7 10 10 11 11 11 10 8 8 8 9 9 10 10 8 8 7 6 5 4 2 1 1 2 3 3 4 5 5 6 8 11 14 18 21 25 26 28 30 31
12 11 10 9 10 10 10 10 10 9 8 6 3 1 3 5 4 4 4 3 4 3 1 2 4 4 6 7 7 6 5 6 8 11 14 19 24 26 25 30 33 34 35
15 15 14 14 13 12 12 11 10 11 10 9 8 6 5 4 3 4 5 6 7 6 6 7 8 8 8 7 8 9 9 13 15 17 18 23 26 27 33 31 33 35 35
15 16 17 16 15 14 13 13 13 13 13 12 11 11 11 10 7 7 8 10 11 10 9 9 10 10 10 12 14 16 17 19 21 23 23 24 30 33 33 29 30 32 34
20 18 20 20 20 18 17 16 16 17 16 15 16 16 14 13 12 11 11 11 12 13 12 11 11 13 15 18 20 21 23 25 27 30 31 33 35 39 35 34 34 38 42
23 21 20 21 21 21 20 19 19 19 20 20 19 18 17 17 17 16 15 15 16 16 15 15 16 18 21 22 23 24 26 29 32 36 36 39 42 38 33 34 33 36 41
25 24 23 23 24 24 24 25 23 22 22 23 24 23 22 21 20 20 21 22 23 23 22 22 22 22 22 24 26 28 28 29 33 36 41 45 41 42 38 41 43 40 44
30 29 28 27 25 25 25 25 24 23 22 22 23 22 23 25 27 28 26 26 26 26 28 29 28 27 28 29 30 30 31 32 32 33 34 36 38 41 38 40 41 45 46
35 33 33 32 30 28 28 28 27 26 26 25 26 26 25 23 23 24 27 28 28 29 29 29 31 32 33 33 32 32 32 32 31 33 37 38 38 38 41 43 45 47 47
40 38 38 34 36 33 32 32 29 28 27 26 26 27 28 28 27 29 31 31 30 29 29 30 31 32 34 35 35 35 33 33 36 38 38 38 42 44 44 45 47 49 50
42 41 42 41 40 40 36 34 34 33 30 30 31 31 30 29 28 29 31 31 31 32 33 34 34 34 34 34 36 36 37 37 38 40 41 44 45 44 42 46 46 48 45
Wind_Direction
357 343 351 343 347 355 0 36 50 62 66 68 100 126 142 146 146 146 148 147 149 152 144 134 143 134 168 177 188 207 210 185 172 165 167 169 177 186 178 188 193 181 189
350 341 352 345 348 12 12 46 49 60 71 78 102 118 131 139 151 155 151 152 150 147 136 123 138 114 147 146 163 169 154 168 159 174 180 160 183 188 190 183 184 185 193
348 355 356 355 30 43 39 59 57 58 74 86 116 134 134 134 154 158 155 156 148 142 140 105 122 120 119 121 141 163 155 159 168 161 158 172 191 190 178 180 187 184 187
360 11 10 39 53 68 52 62 62 58 68 79 107 147 162 154 155 159 170 162 156 150 153 142 131 131 120 135 125 142 157 160 169 178 173 180 158 170 189 191 183 191 197
12 22 36 63 58 62 48 80 58 59 78 62 125 128 163 159 163 165 164 168 167 167 161 143 142 152 124 143 143 140 154 169 178 183 176 177 179 184 186 192 192 206 200
20 37 54 60 52 56 47 66 63 52 70 48 92 166 151 166 177 168 159 161 171 173 167 150 156 157 144 141 152 157 168 179 181 189 180 178 181 178 177 183 197 205 137
55 51 65 69 68 74 65 58 65 59 55 31 71 97 174 175 170 168 160 150 158 167 160 156 154 147 154 165 176 165 167 160 151 163 166 175 177 184 193 201 199 143 155
73 66 70 81 77 81 82 73 72 71 65 62 77 67 72 164 162 151 152 166 168 164 156 156 141 158 179 157 177 173 182 174 161 173 177 188 192 194 198 151 118 168 201
83 82 77 79 85 83 88 87 81 76 74 74 68 64 60 122 154 160 144 142 152 170 158 151 160 129 150 147 149 146 137 147 154 155 166 169 149 112 116 159 187 207 230
89 91 88 81 79 83 84 88 84 80 80 82 83 78 81 85 142 147 146 154 152 154 169 168 161 126 133 134 139 142 142 138 129 116 110 125 138 150 177 219 238 245 256
113 100 86 82 78 77 75 86 87 85 83 87 88 85 83 83 85 90 114 132 129 111 112 132 139 134 140 122 106 104 103 102 112 113 123 147 179 200 220 237 253 272 284
138 128 108 82 71 80 79 86 92 94 91 88 91 93 95 93 94 96 91 89 94 96 95 98 101 102 102 101 101 103 112 130 148 168 181 197 213 233 251 270 284 291 292
137 156 140 113 90 95 98 98 97 99 100 98 95 96 98 98 101 104 106 105 104 109 116 124 128 130 132 136 142 145 158 164 170 178 186 211 237 255 269 276 283 293 297
142 144 161 155 128 123 114 109 106 105 102 99 96 95 94 93 93 93 94 100 108 114 116 119 123 128 134 133 131 134 137 144 160 198 261 286 293 294 295 297 295 294 293
158 155 152 165 161 150 143 132 123 121 113 104 96 88 82 82 87 91 93 96 100 103 104 106 109 115 123 135 146 149 176 258 273 277 284 290 293 295 296 296 294 291 291
175 168 178 176 179 180 175 165 151 154 140 122 100 81 68 62 66 90 101 104 105 107 112 128 172 229 236 245 255 263 267 281 294 300 304 304 301 300 294 290 290 291 292
204 187 184 194 197 199 201 194 184 177 188 195 191 125 41 30 41 101 102 76 57 47 307 289 282 273 273 280 282 287 293 290 295 304 303 298 297 306 301 294 289 289 290
212 212 200 203 210 210 215 215 207 205 211 220 232 252 271 297 305 256 255 277 299 318 304 283 279 281 287 297 304 304 297 302 299 298 310 318 309 307 313 308 297 293 294
209 219 220 217 219 222 224 227 229 230 234 239 245 253 267 276 277 263 261 280 288 286 297 277 270 266 274 290 296 298 302 305 301 300 301 306 317 309 314 311 309 302 299
222 217 219 222 224 225 226 229 234 237 238 243 251 256 258 256 254 259 269 272 270 271 274 276 274 271 274 281 288 290 295 298 300 301 301 303 308 310 300 302 303 308 305
231 227 226 225 226 228 227 230 237 245 247 244 245 250 252 255 258 260 264 265 257 254 258 269 282 287 289 288 289 291 293 297 301 307 307 301 306 309 299 301 302 304 309
235 235 230 227 227 230 230 232 235 240 242 243 247 255 254 253 252 250 257 266 266 266 267 277 283 281 288 292 290 290 294 296 299 302 302 301 306 298 288 289 293 305 304
244 238 235 235 237 234 235 234 239 243 240 241 245 247 253 261 265 266 265 263 261 264 270 277 279 280 283 285 287 291 297 300 302 307 303 307 307 309 307 300 297 301 307
250 248 244 238 235 238 238 239 240 241 242 245 252 256 254 257 264 264 265 267 267 266 267 271 278 282 284 287 289 289 292 293 295 301 301 304 307 308 305 303 305 313 310
243 249 252 251 245 238 240 242 238 236 240 243 245 248 250 253 256 259 264 265 267 267 268 271 275 281 287 289 289 289 289 287 290 299 299 299 301 302 305 307 310 306 309
239 241 245 246 248 241 237 242 240 240 238 243 246 248 250 254 257 261 265 265 265 269 272 275 277 279 281 283 285 285 285 288 292 294 295 297 303 305 303 305 307 307 305
Height
5725 5721 5719 5715 5712 5708 5706 5703 5700 5697 5696 5695 5695 5696 5698 5700 5703 5705 5707 5710 5712 5714 5716 5718 5719 5722 5725 5730 5734 5738 5740 5741 5746 5751 5756 5761 5767 5772 5778 5783 5788 5792 5795
5724 5720 5719 5714 5711 5708 5707 5704 5702 5700 5699 5699 5699 5700 5703 5705 5706 5708 5711 5713 5716 5718 5720 5721 5723 5726 5728 5732 5734 5739 5741 5744 5749 5754 5758 5762 5768 5773 5778 5783 5788 5791 5795
5723 5721 5718 5714 5711 5710 5708 5706 5704 5703 5702 5702 5703 5703 5705 5707 5709 5711 5713 5716 5719 5722 5724 5725 5727 5731 5733 5735 5737 5741 5744 5747 5752 5757 5761 5765 5769 5773 5778 5783 5787 5791 5795
5723 5721 5718 5715 5713 5712 5711 5709 5707 5706 5705 5705 5705 5706 5707 5708 5710 5713 5716 5719 5721 5724 5726 5729 5732 5734 5736 5738 5742 5744 5746 5749 5754 5759 5763 5767 5770 5774 5779 5784 5788 5792 5794
5723 5721 5719 5718 5716 5715 5714 5713 5710 5709 5708 5706 5706 5707 5708 5710 5712 5714 5717 5720 5724 5726 5728 5731 5733 5737 5738 5741 5743 5746 5749 5753 5757 5760 5763 5767 5772 5776 5780 5784 5788 5791 5794
5724 5722 5721 5720 5718 5717 5716 5715 5713 5712 5710 5709 5707 5707 5709 5711 5713 5716 5719 5721 5725 5728 5731 5734 5735 5737 5740 5742 5746 5748 5750 5753 5756 5759 5764 5769 5773 5777 5780 5785 5787 5791 5793
5726 5724 5722 5721 5719 5718 5718 5716 5715 5714 5713 5710 5708 5708 5709 5711 5713 5717 5720 5723 5726 5730 5733 5735 5737 5738 5741 5744 5746 5748 5751 5754 5756 5761 5765 5769 5773 5776 5780 5783 5786 5791 5794
5727 5726 5725 5724 5723 5722 5720 5720 5719 5718 5716 5713 5713 5711 5709 5711 5715 5718 5721 5724 5727 5731 5733 5736 5739 5742 5743 5745 5746 5749 5752 5756 5758 5762 5767 5770 5774 5776 5780 5782 5788 5792 5794
5729 5728 5727 5727 5727 5726 5724 5723 5723 5722 5720 5718 5717 5716 5713 5711 5716 5721 5724 5728 5731 5734 5736 5738 5741 5742 5742 5745 5747 5751 5754 5757 5761 5765 5769 5772 5775 5778 5783 5786 5789 5790 5791
5730 5730 5730 5730 5730 5730 5729 5727 5727 5726 5725 5724 5722 5721 5720 5718 5719 5723 5727 5730 5732 5734 5736 5739 5742 5744 5745 5747 5750 5754 5757 5761 5764 5768 5772 5775 5777 5780 5782 5785 5786 5786 5788
5731 5732 5733 5733 5733 5733 5733 5732 5731 5731 5730 5730 5728 5727 5727 5726 5727 5727 5729 5732 5735 5737 5739 5741 5745 5747 5751 5753 5756 5758 5762 5765 5770 5772 5774 5776 5778 5780 5782 5784 5785 5785 5784
5733 5733 5734 5735 5735 5736 5735 5736 5735 5735 5735 5735 5735 5734 5734 5735 5735 5737 5739 5740 5741 5742 5745 5748 5751 5754 5757 5759 5762 5765 5768 5770 5772 5774 5776 5778 5780 5781 5782 5782 5780 5778 5776
5733 5734 5735 5736 5737 5737 5738 5739 5739 5739 5739 5739 5740 5741 5741 5741 5742 5744 5744 5746 5748 5750 5752 5754 5756 5758 5761 5764 5766 5769 5771 5772 5773 5775 5776 5777 5778 5778 5777 5777 5776 5774 5772
5733 5735 5736 5737 5738 5739 5741 5742 5743 5743 5744 5744 5745 5746 5746 5747 5748 5749 5750 5751 5753 5755 5757 5758 5760 5762 5764 5766 5768 5770 5771 5773 5774 5774 5775 5775 5775 5774 5773 5772 5771 5770 5768
5733 5735 5736 5738 5739 5741 5742 5744 5746 5747 5748 5749 5750 5751 5752 5753 5753 5754 5755 5756 5758 5759 5761 5762 5763 5764 5765 5766 5767 5768 5769 5770 5771 5772 5772 5771 5771 5770 5769 5767 5766 5764 5762
5732 5734 5736 5738 5739 5741 5743 5745 5747 5749 5750 5751 5753 5754 5754 5755 5756 5757 5757 5758 5759 5760 5761 5762 5762 5763 5764 5764 5765 5766 5768 5768 5769 5769 5768 5768 5767 5766 5764 5762 5760 5758 5755
5730 5732 5734 5737 5739 5741 5742 5744 5746 5748 5750 5752 5753 5755 5755 5756 5757 5757 5758 5759 5760 5761 5761 5761 5762 5762 5763 5763 5764 5765 5765 5765 5765 5765 5764 5763 5761 5759 5756 5754 5751 5748 5745
5728 5730 5732 5734 5737 5739 5741 5743 5744 5746 5748 5750 5752 5753 5755 5756 5757 5757 5758 5758 5758 5759 5759 5760 5760 5760 5760 5761 5761 5762 5762 5761 5761 5760 5759 5758 5755 5753 5750 5746 5743 5740 5736
5724 5727 5729 5731 5734 5736 5738 5740 5742 5743 5745 5747 5749 5750 5752 5753 5754 5755 5755 5756 5756 5757 5757 5757 5757 5757 5758 5758 5758 5757 5757 5756 5756 5755 5754 5751 5749 5745 5742 5738 5735 5732 5729
5719 5722 5725 5727 5729 5732 5734 5736 5738 5740 5742 5743 5745 5746 5748 5749 5750 5750 5751 5751 5751 5752 5752 5753 5754 5754 5754 5754 5753 5752 5752 5751 5749 5748 5745 5743 5740 5737 5733 5730 5726 5723 5719
5714 5716 5719 5722 5725 5727 5729 5731 5732 5734 5736 5738 5740 5742 5743 5744 5745 5746 5746 5745 5745 5745 5746 5747 5748 5749 5749 5749 5749 5748 5747 5745 5743 5740 5736 5734 5731 5728 5724 5722 5719 5714 5709
5708 5710 5713 5716 5718 5721 5723 5724 5726 5728 5729 5731 5733 5735 5737 5738 5739 5740 5741 5741 5742 5742 5741 5741 5742 5742 5742 5742 5741 5740 5739 5737 5735 5732 5728 5726 5722 5718 5716 5713 5710 5706 5700
5702 5703 5705 5709 5711 5714 5716 5718 5720 5722 5723 5725 5726 5728 5731 5733 5734 5734 5735 5734 5734 5734 5735 5735 5734 5733 5733 5732 5731 5730 5730 5728 5726 5723 5720 5717 5714 5710 5706 5703 5700 5695 5689
5693 5697 5699 5701 5704 5706 5709 5711 5713 5715 5716 5717 5719 5721 5723 5725 5727 5728 5728 5727 5727 5727 5727 5727 5727 5727 5725 5724 5722 5721 5720 5718 5715 5713 5710 5707 5704 5700 5697 5693 5688 5683 5677
5682 5685 5689 5694 5697 5698 5701 5703 5704 5705 5708 5710 5711 5712 5714 5715 5717 5718 5719 5719 5719 5719 5719 5719 5719 5718 5718 5717 5714 5711 5710 5708 5706 5705 5701 5698 5694 5690 5686 5681 5677 5672 5667
5670 5673 5675 5679 5685 5689 5691 5693 5696 5697 5697 5699 5700 5701 5703 5705 5707 5708 5710 5711 5712 5712 5711 5710 5710 5709 5707 5706 5706 5703 5701 5699 5697 5694 5690 5688 5684 5680 5676 5671 5667 5662 5657